Weather History for Carson City, NV

Change the Weather History Date:

Friday, April 5, 2013

  Actual Average Record
Temperature  
Mean Temperature 50 °F -  
Max Temperature 59 °F 62 °F 59 °F (2013)
Min Temperature 42 °F 30 °F 24 °F (2012)
Degree Days  
Heating Degree Days 14    
Moisture  
Dew Point 25 °F    
Average Humidity 38    
Maximum Humidity 54    
Minimum Humidity 19    
Precipitation  
Precipitation 0.00 in - - ()
Sea Level Pressure  
Sea Level Pressure 30.09 in    
Wind  
Wind Speed 8 mph (WSW)    
Max Wind Speed 21 mph    
Max Gust Speed 26 mph    
Visibility 10 miles    
Events      
Averages and records for this station are not official NWS values.
T = Trace of Precipitation, MM = Missing Value Source: NWS Daily Summary

Daily Weather History Graph

Daily Weather History Graph

Search for Another Location

Airport:

Trip Planner

Search our weather history database for the weather conditions in past years. The results will help you decide how hot, cold, wet, or windy it might be!

Date:

Astronomy

Apr. 05, 2013 Rise Set
Actual Time 6:36 AM PDT 7:26 PM PDT
Civil Twilight 6:09 AM PDT 7:54 PM PDT
Nautical Twilight 5:37 AM PDT 8:26 PM PDT
Astronomical Twilight 5:04 AM PDT 8:59 PM PDT
Moon 3:45 AM PDT (4/5) 2:58 PM PDT (4/5)
Length of Visible Light 13h 44m
Length of Day
12h 50m
Waning Crescent, 22% of the Moon is Illuminated
Apr 5
Waning Crescent
Apr 10
New
Apr 18
First Quarter
Apr 25
Full
May 2
Last Quarter

Hourly Weather History & Observations

Time (PDT) Temp. Windchill Dew Point Humidity Pressure Visibility Wind Dir Wind Speed Gust Speed Precip Events Conditions
12:15 AM 48.2 °F - 32.0 °F 54% 30.09 in 10.0 mi SW 6.9 mph - N/A   Mostly Cloudy
12:35 AM 48.2 °F - 30.2 °F 50% 30.09 in 10.0 mi WSW 6.9 mph - N/A   Clear
12:55 AM 48.2 °F - 28.4 °F 46% 30.09 in 10.0 mi WSW 11.5 mph 17.3 mph N/A   Clear
1:15 AM 48.2 °F - 30.2 °F 50% 30.09 in 10.0 mi West 8.1 mph - N/A   Clear
1:35 AM 46.4 °F 42.4 °F 30.2 °F 53% 30.10 in 10.0 mi West 8.1 mph - N/A   Clear
1:55 AM 46.4 °F 42.9 °F 30.2 °F 53% 30.09 in 10.0 mi WSW 6.9 mph - N/A   Clear
2:15 AM 46.4 °F 43.5 °F 30.2 °F 53% 30.09 in 10.0 mi West 5.8 mph - N/A   Clear
2:35 AM 44.6 °F 40.7 °F 28.4 °F 53% 30.09 in 10.0 mi West 6.9 mph - N/A   Clear
2:55 AM 46.4 °F 42.9 °F 28.4 °F 50% 30.09 in 10.0 mi West 6.9 mph - N/A   Clear
3:15 AM 44.6 °F 40.7 °F 28.4 °F 53% 30.10 in 10.0 mi West 6.9 mph - N/A   Clear
3:35 AM 44.6 °F 40.2 °F 28.4 °F 53% 30.08 in 10.0 mi West 8.1 mph - N/A   Clear
3:55 AM 44.6 °F 40.7 °F 28.4 °F 53% 30.08 in 10.0 mi WSW 6.9 mph - N/A   Clear
4:15 AM 44.6 °F 40.2 °F 28.4 °F 53% 30.08 in 10.0 mi WSW 8.1 mph - N/A   Clear
4:35 AM 44.6 °F 39.7 °F 28.4 °F 53% 30.09 in 10.0 mi SW 9.2 mph - N/A   Clear
4:55 AM 46.4 °F 41.9 °F 26.6 °F 46% 30.09 in 10.0 mi SW 9.2 mph 17.3 mph N/A   Clear
5:15 AM 46.4 °F 41.9 °F 24.8 °F 43% 30.09 in 10.0 mi SW 9.2 mph 17.3 mph N/A   Clear
5:35 AM 46.4 °F 41.9 °F 24.8 °F 43% 30.10 in 10.0 mi SW 9.2 mph - N/A   Clear
5:55 AM 44.6 °F 40.7 °F 26.6 °F 49% 30.10 in 10.0 mi SW 6.9 mph - N/A   Scattered Clouds
6:15 AM 44.6 °F 42.2 °F 26.6 °F 49% 30.11 in 10.0 mi SSE 4.6 mph - N/A   Partly Cloudy
6:35 AM 42.8 °F 41.1 °F 26.6 °F 53% 30.11 in 10.0 mi SSE 3.5 mph - N/A   Clear
6:55 AM 44.6 °F 43.1 °F 26.6 °F 49% 30.11 in 10.0 mi South 3.5 mph - N/A   Clear
7:15 AM 44.6 °F 42.2 °F 26.6 °F 49% 30.11 in 10.0 mi South 4.6 mph - N/A   Clear
7:35 AM 44.6 °F 40.7 °F 28.4 °F 53% 30.10 in 10.0 mi SSW 6.9 mph - N/A   Clear
7:55 AM 46.4 °F 41.9 °F 28.4 °F 50% 30.11 in 10.0 mi SW 9.2 mph - N/A   Clear
8:15 AM 46.4 °F 41.5 °F 26.6 °F 46% 30.11 in 10.0 mi WSW 10.4 mph 17.3 mph N/A   Clear
8:35 AM 48.2 °F - 26.6 °F 43% 30.12 in 10.0 mi SSW 9.2 mph 16.1 mph N/A   Clear
8:55 AM 48.2 °F - 26.6 °F 43% 30.12 in 3.0 mi SSW 6.9 mph - N/A   Haze
9:15 AM 50.0 °F - 24.8 °F 37% 30.12 in 10.0 mi Calm Calm - N/A   Clear
9:35 AM 51.8 °F - 23.0 °F 33% 30.12 in 10.0 mi SW 5.8 mph - N/A   Clear
9:55 AM 53.6 °F - 23.0 °F 30% 30.12 in 10.0 mi SSW 4.6 mph - N/A   Clear
10:15 AM 53.6 °F - 23.0 °F 30% 30.12 in 10.0 mi South 3.5 mph - N/A   Clear
10:35 AM 55.4 °F - 23.0 °F 29% 30.12 in 10.0 mi Calm Calm - N/A   Clear
10:55 AM 55.4 °F - 19.4 °F 25% 30.12 in 10.0 mi WSW 12.7 mph 17.3 mph N/A   Clear
11:15 AM 57.2 °F - 19.4 °F 23% 30.11 in 10.0 mi West 11.5 mph - N/A   Clear
11:35 AM 57.2 °F - 17.6 °F 21% 30.10 in 10.0 mi WNW 9.2 mph - N/A   Clear
11:55 AM 57.2 °F - 15.8 °F 20% 30.10 in 10.0 mi SW 10.4 mph 17.3 mph N/A   Clear
12:15 PM 59.0 °F - 15.8 °F 19% 30.09 in 10.0 mi SSW 11.5 mph 19.6 mph N/A   Clear
12:35 PM 59.0 °F - 15.8 °F 19% 30.09 in 10.0 mi SW 12.7 mph 20.7 mph N/A   Clear
12:55 PM 59.0 °F - 17.6 °F 20% 30.09 in 10.0 mi SW 15.0 mph 20.7 mph N/A   Clear
1:15 PM 59.0 °F - 17.6 °F 20% 30.09 in 10.0 mi WSW 9.2 mph 17.3 mph N/A   Clear
1:35 PM 59.0 °F - 21.2 °F 23% 30.09 in 10.0 mi SSW 11.5 mph 23.0 mph N/A   Clear
1:55 PM 59.0 °F - 23.0 °F 25% 30.09 in 10.0 mi SW 13.8 mph 23.0 mph N/A   Clear
2:15 PM 59.0 °F - 23.0 °F 25% 30.07 in 10.0 mi SW 13.8 mph 19.6 mph N/A   Clear
2:35 PM 59.0 °F - 24.8 °F 27% 30.07 in 10.0 mi SW 11.5 mph 17.3 mph N/A   Clear
2:55 PM 59.0 °F - 24.8 °F 27% 30.07 in 10.0 mi WSW 17.3 mph 23.0 mph N/A   Clear
3:15 PM 59.0 °F - 23.0 °F 25% 30.07 in 10.0 mi SSW 13.8 mph 24.2 mph N/A   Clear
3:35 PM 57.2 °F - 23.0 °F 27% 30.07 in 10.0 mi SW 6.9 mph - N/A   Clear
3:55 PM 57.2 °F - 23.0 °F 27% 30.07 in 10.0 mi WNW 15.0 mph 19.6 mph N/A   Clear
4:15 PM 57.2 °F - 23.0 °F 27% 30.07 in 10.0 mi West 10.4 mph 17.3 mph N/A   Clear
4:35 PM 57.2 °F - 24.8 °F 29% 30.07 in 10.0 mi West 12.7 mph 21.9 mph N/A   Clear
4:55 PM 59.0 °F - 24.8 °F 27% 30.07 in 10.0 mi West 16.1 mph 26.5 mph N/A   Clear
5:15 PM 57.2 °F - 26.6 °F 31% 30.07 in 10.0 mi West 20.7 mph 26.5 mph N/A   Clear
5:35 PM 57.2 °F - 26.6 °F 31% 30.06 in 10.0 mi WNW 16.1 mph 24.2 mph N/A   Clear
5:55 PM 57.2 °F - 26.6 °F 31% 30.07 in 10.0 mi WNW 15.0 mph 21.9 mph N/A   Clear
6:15 PM 55.4 °F - 28.4 °F 36% 30.07 in 10.0 mi WNW 15.0 mph 20.7 mph N/A   Clear
6:35 PM 55.4 °F - 26.6 °F 33% 30.07 in 10.0 mi WNW 8.1 mph - N/A   Clear
6:55 PM 55.4 °F - 21.2 °F 26% 30.07 in 10.0 mi West 10.4 mph 19.6 mph N/A   Mostly Cloudy
7:15 PM 55.4 °F - 19.4 °F 25% 30.07 in 10.0 mi WSW 13.8 mph 23.0 mph N/A   Overcast
7:35 PM 53.6 °F - 23.0 °F 30% 30.08 in 10.0 mi WSW 10.4 mph - N/A   Overcast
7:55 PM 53.6 °F - 26.6 °F 35% 30.09 in 10.0 mi West 6.9 mph - N/A   Overcast
8:15 PM 51.8 °F - 26.6 °F 38% 30.09 in 10.0 mi West 10.4 mph 18.4 mph N/A   Mostly Cloudy
8:35 PM 50.0 °F - 26.6 °F 40% 30.09 in 10.0 mi West 11.5 mph 18.4 mph N/A   Mostly Cloudy
8:55 PM 50.0 °F - 26.6 °F 40% 30.10 in 10.0 mi WSW 6.9 mph - N/A   Overcast
9:15 PM 50.0 °F - 28.4 °F 43% 30.11 in 10.0 mi West 8.1 mph - N/A   Mostly Cloudy
9:35 PM 50.0 °F - 28.4 °F 43% 30.11 in 10.0 mi WSW 10.4 mph - N/A   Partly Cloudy
9:55 PM 48.2 °F - 28.4 °F 46% 30.12 in 10.0 mi West 5.8 mph - N/A   Clear
10:15 PM 48.2 °F - 28.4 °F 46% 30.12 in 10.0 mi West 5.8 mph - N/A   Clear
10:35 PM 48.2 °F - 26.6 °F 43% 30.12 in 10.0 mi WSW 4.6 mph - N/A   Clear
10:55 PM 48.2 °F - 24.8 °F 40% 30.12 in 10.0 mi Calm Calm - N/A   Clear
11:15 PM 46.4 °F 45.2 °F 23.0 °F 40% 30.11 in 10.0 mi SW 3.5 mph - N/A   Clear
11:35 PM 48.2 °F - 19.4 °F 32% 30.12 in 10.0 mi WSW 5.8 mph - N/A   Mostly Cloudy
11:55 PM 48.2 °F - 17.6 °F 30% 30.11 in 10.0 mi WSW 6.9 mph - N/A   Overcast